Location: Hickory_CSC
(35.7330°N, 81.3330°W)
Time: 01:18:01
(UTC-04:00)

Cosmos 1356 Rocket - Visible Passes

Search period start: 20 April 2018 00:00
Search period end: 30 April 2018 00:00
Orbit: 543 x 599 km, 81.2° (Epoch: 18 April)

Date Brightness Start Highest point End Pass type
(mag) Time Alt. Az. Time Alt. Az. Time Alt. Az.
20 Apr 5.1 04:05:50 30° NNE 04:05:50 30° NNE 04:07:57 10° NNE visible
21 Apr 5.1 04:08:24 28° N 04:08:24 28° N 04:10:22 10° N visible
22 Apr 5.2 04:10:57 24° N 04:10:57 24° N 04:12:44 10° N visible
23 Apr 5.4 04:13:29 21° NNW 04:13:29 21° NNW 04:15:02 10° N visible
24 Apr 5.5 04:16:00 17° NNW 04:16:00 17° NNW 04:17:15 10° NNW visible
25 Apr 5.7 04:18:28 14° NNW 04:18:28 14° NNW 04:19:22 10° NNW visible
26 Apr 6.6 02:44:47 11° NE 02:44:47 11° NE 02:45:01 10° NE visible
26 Apr 5.9 04:20:56 12° NW 04:20:56 12° NW 04:21:20 10° NNW visible
27 Apr 6.5 02:47:14 13° NNE 02:47:14 13° NNE 02:47:41 10° NNE visible
28 Apr 6.4 02:49:40 14° NNE 02:49:40 14° NNE 02:50:15 10° NNE visible
29 Apr 6.3 02:52:05 14° NNE 02:52:05 14° NNE 02:52:44 10° NNE visible
